Location: Evergreen Manor
(41.4083°N, 81.4939°W)
Time: 01:21:00
(UTC+00:00)

Cosmos 2180 Rocket - Pass Details

Date: 11 December 2019
Orbit: 955 x 1004 km, 82.9° (Epoch: 17 January)

Event Time Altitude Azimuth Distance (km) Brightness Sun altitude
Rises 11:26:58 0° 191° (SSW) 3,617 7.6 -13.6°
Reaches altitude 10° 11:29:28 10° 194° (SSW) 2,675 6.9 -13.1°
Maximum altitude 11:35:34 73° 278° (W) 1,002 4.4 -12.1°
Drops below altitude 10° 11:41:44 10° 4° (N) 2,704 6.7 -11.0°
Sets 11:44:16 0° 6° (N) 3,660 7.3 -10.5°
